Lid_Strength_Index
4 7 7 8 12 13 14 13 10 9 8 6 5 7 8 7 9 11 1 0 -0 -0 -1 -1 -1 -2 -2 -2 -2 -2 -2 -2 -2 -2 -2 -2 -2 -3 -3 -3 -2 -2 -2 -2 -2 -2 -2 -2 -2
7 7 8 11 14 16 15 12 9 8 7 6 6 6 7 9 5 4 3 -0 -1 -1 -1 -1 -1 -2 -2 -2 -2 -2 -2 -2 -2 -2 -2 -2 -2 -2 -2 -2 -3 -2 -2 -2 -2 -2 -2 -2 -2
6 9 10 13 15 16 14 11 9 7 6 6 7 5 6 8 4 3 1 -0 -1 -1 -1 -1 -1 -2 -2 -2 -2 -2 -2 -2 -2 -2 -2 -2 -2 -2 -2 -2 -2 -2 -2 -2 -2 -2 -2 -2 -2
8 9 11 14 15 13 13 9 8 8 6 5 6 8 5 2 3 1 -0 -1 -0 -1 -1 -1 -1 -2 -2 -2 -2 -2 -2 -2 -2 -2 -2 -2 -1 -2 -2 -3 -2 -2 -2 -2 -2 -2 -2 -2 -2
9 11 14 15 15 14 12 8 7 8 8 7 6 9 7 3 1 0 0 -0 0 -0 -1 -1 -1 -2 -2 -2 -2 -2 -2 -2 -2 -2 -2 -1 -2 -2 -2 -2 -2 -2 -2 -2 -2 -2 -2 -2 -2
11 12 16 16 15 13 9 8 9 9 8 7 7 8 7 2 2 1 -0 -0 -1 -0 -1 -1 0 -1 -1 -2 -2 -2 -2 -2 -2 -2 -2 -2 -2 -2 -2 -2 -2 -2 -2 -2 -2 -2 -2 -2 -2
12 13 15 16 15 13 8 8 9 8 7 7 5 9 6 4 1 1 0 -0 -0 -1 -1 -1 -1 -1 0 -1 -1 -2 -2 -2 -2 -2 -2 -2 -2 -2 -2 -2 -2 -2 -2 -2 -2 -2 -2 -2 -2
12 13 15 15 15 12 9 9 9 6 7 4 4 9 8 4 1 1 0 0 1 -0 -0 -0 -1 -1 -1 -1 0 -1 -1 -1 -2 -1 -1 -1 -1 -1 -1 -1 -2 -2 -2 -2 -2 -2 -2 -2 -2
11 14 16 14 13 10 9 9 8 6 6 5 5 5 4 2 1 2 2 1 1 1 0 -0 -0 -0 -1 -1 0 0 -0 -1 -1 -0 1 0 -1 -1 -1 -0 -1 -2 -2 -2 -2 -2 -2 -1 -1
12 14 14 12 13 10 9 9 9 7 7 7 6 4 3 2 2 3 3 3 2 2 1 1 0 0 -1 -1 -1 -1 -1 -1 -1 -1 -0 -0 -0 -1 -1 0 -0 -1 -1 -2 -2 -2 -0 -0 -1
12 14 12 12 12 10 9 10 8 7 9 7 7 6 4 3 3 4 3 3 2 2 1 -0 0 0 -1 -0 -1 -1 -1 -1 -1 -1 -1 -1 -0 -1 -1 -1 -0 -1 1 -0 -0 -0 -1 -0 -0
13 13 13 12 13 12 10 9 9 7 7 6 4 4 4 4 4 4 3 2 2 2 2 1 0 0 -0 -1 -1 -1 -1 -1 -1 -1 -1 -1 -0 0 0 0 0 -1 -1 -1 -1 -1 -0 -0 0
12 12 12 13 13 13 11 10 9 9 8 5 4 4 4 4 4 3 3 2 2 2 1 1 1 0 0 -0 -1 -1 -1 -1 -1 -1 -1 -1 -0 0 0 -0 -0 -1 -1 -1 -1 -0 0 0 0
10 11 12 12 13 13 12 11 10 9 5 5 5 5 4 4 4 3 3 2 2 1 1 1 1 1 0 -0 -0 -1 -1 -1 -1 -1 -1 -0 -1 -0 -0 -0 -0 -0 -0 -0 -0 0 1 1 1
9 11 10 10 13 13 14 12 11 9 6 6 6 5 5 4 3 3 2 2 2 1 1 1 1 1 0 0 0 -0 -1 -1 -1 -0 -0 -0 0 0 0 -0 0 -0 0 0 1 1 1 1 1
10 11 13 10 12 13 13 14 10 8 6 7 6 6 5 4 4 3 2 2 1 1 1 0 -0 0 1 0 -0 -0 -0 -1 -1 -0 0 1 1 1 0 0 0 0 0 1 1 1 0 1 1
13 15 14 12 11 13 14 15 10 8 7 7 7 6 6 5 4 3 2 2 2 2 2 1 0 0 -0 -0 -0 -0 -1 -1 -0 0 0 1 1 1 1 1 1 1 1 1 1 1 2 1 1
15 14 14 13 12 15 15 16 11 10 7 7 7 6 6 5 5 4 3 2 2 2 2 2 1 0 -0 1 1 0 0 0 -0 -0 -1 0 0 0 1 1 2 1 2 1 1 2 2 1 1
11 13 14 14 13 13 15 15 13 11 9 8 7 7 6 6 4 4 4 3 2 2 2 2 2 1 1 1 2 1 1 0 0 -0 -0 0 0 0 0 0 0 1 1 2 2 2 3 1 0
12 13 14 13 14 14 13 13 14 13 12 9 7 7 6 6 5 4 4 4 3 2 2 2 2 2 1 1 1 1 0 -0 -0 -0 0 0 0 0 0 0 0 1 1 2 2 2 2 2 1
12 13 13 13 15 15 16 16 15 14 14 12 10 7 6 6 5 4 5 4 4 3 2 2 2 2 1 1 2 2 1 1 1 1 1 1 0 0 0 0 0 0 1 1 1 1 2 2 2
14 11 13 13 15 17 15 20 14 14 15 14 11 12 9 6 5 5 5 5 4 3 3 2 2 2 2 1 2 2 2 2 1 1 -0 -0 0 0 0 -0 0 1 1 1 1 1 1 1 3
12 10 13 14 16 16 17 18 16 15 16 15 12 12 11 9 8 6 6 5 4 3 3 3 2 2 1 1 1 2 2 2 1 1 1 1 1 0 0 0 1 2 2 2 2 3 3 2 3
10 11 13 14 15 19 15 16 17 16 15 15 13 11 10 10 11 9 9 8 6 4 4 3 2 2 1 1 1 2 2 3 3 2 2 2 3 3 3 4 4 4 4 4 5 5 5 6 6
11 13 18 19 19 20 17 17 14 14 15 14 13 13 10 10 11 11 12 11 9 7 4 3 3 2 1 1 1 1 1 2 2 2 3 3 4 5 5 6 6 6 6 7 7 8 8 8 9
12 13 18 22 21 19 18 18 15 12 9 9 13 14 13 12 12 11 11 10 10 8 6 4 3 2 1 1 1 1 1 2 2 3 3 3 3 5 7 8 8 8 8 9 9 10 10 10 10
13 15 13 17 23 21 19 17 15 15 15 15 16 15 14 12 12 11 10 10 9 8 7 6 5 2 1 1 1 1 1 2 3 3 4 5 7 8 9 9 10 10 10 11 11 11 11 11 11
11 11 16 16 21 22 20 20 16 16 15 15 16 15 14 13 12 11 11 10 9 8 8 8 8 6 3 1 1 1 2 3 4 6 7 8 10 10 11 11 11 11 11 12 12 12 12 12 12
13 14 13 14 17 20 23 19 16 13 13 14 13 14 13 12 13 13 10 9 8 8 8 8 8 7 6 3 2 4 5 5 6 7 9 9 11 12 12 12 12 12 12 13 13 13 13 13 14
11 13 13 17 18 19 19 19 15 15 15 14 14 14 13 13 13 13 10 9 9 8 8 8 8 7 6 4 4 5 6 7 8 10 11 11 12 13 13 13 13 13 13 13 13 13 14 14 14